• In Belarus
  • List of Countries
  • For 7 days
  • Water Temperature
  • Weather Map
  • Weather Widgets
  • user-avatar
    Login

    Hourly Weather Folkern

    Today, 22 October, Tuesday

    Time Temperature Precipitation Wind Pressure Humidity
    00:00 +9°C° 0 mm 14 mps 758 mmHg 82%
    01:00 +9°C° 0.2 mm 14 mps 758 mmHg 82%
    02:00 +10°C° 0.2 mm 14 mps 757 mmHg 82%
    03:00 +10°C° 0.2 mm 14 mps 757 mmHg 82%
    04:00 +10°C° 0.2 mm 14 mps 757 mmHg 83%
    05:00 +10°C° 0.2 mm 14 mps 757 mmHg 84%
    06:00 +10°C° 0.2 mm 14 mps 757 mmHg 85%
    07:00 +10°C° 0.5 mm 14 mps 756 mmHg 85%
    08:00 +10°C° 0.5 mm 14 mps 756 mmHg 84%
    09:00 +10°C° 0.5 mm 14 mps 756 mmHg 84%
    10:00 +10°C° 0.1 mm 14 mps 756 mmHg 82%
    11:00 +10°C° 0.1 mm 14 mps 756 mmHg 79%
    12:00 +10°C° 0.1 mm 13 mps 756 mmHg 77%
    13:00 +10°C° 0 mm 14 mps 756 mmHg 79%
    14:00 +10°C° 0 mm 14 mps 755 mmHg 80%
    15:00 +10°C° 0 mm 14 mps 755 mmHg 81%
    16:00 +10°C° 0.2 mm 15 mps 755 mmHg 82%
    17:00 +10°C° 0.2 mm 15 mps 755 mmHg 83%
    18:00 +10°C° 0.2 mm 16 mps 754 mmHg 84%
    19:00 +10°C° 0.6 mm 16 mps 754 mmHg 86%
    20:00 +10°C° 0.6 mm 16 mps 754 mmHg 88%
    21:00 +10°C° 0.6 mm 16 mps 754 mmHg 89%
    22:00 +10°C° 0.4 mm 15 mps 754 mmHg 89%
    23:00 +10°C° 0.4 mm 14 mps 754 mmHg 89%

    Tomorrow, 23 October, Wednesday

    Time Temperature Precipitation Wind Pressure Humidity
    00:00 +10°C° 0.4 mm 13 mps 754 mmHg 89%
    01:00 +10°C° 1.6 mm 13 mps 753 mmHg 91%
    02:00 +10°C° 1.6 mm 13 mps 753 mmHg 92%
    03:00 +10°C° 1.6 mm 13 mps 753 mmHg 93%
    04:00 +10°C° 1.6 mm 13 mps 752 mmHg 93%
    05:00 +9°C° 1.6 mm 13 mps 752 mmHg 93%
    06:00 +9°C° 1.6 mm 14 mps 751 mmHg 92%
    07:00 +9°C° 0.9 mm 14 mps 751 mmHg 90%
    08:00 +9°C° 0.9 mm 14 mps 750 mmHg 89%
    09:00 +9°C° 0.9 mm 14 mps 750 mmHg 87%
    10:00 +9°C° 1.4 mm 14 mps 749 mmHg 88%
    11:00 +9°C° 1.4 mm 15 mps 749 mmHg 89%
    12:00 +9°C° 1.4 mm 15 mps 748 mmHg 90%
    13:00 +9°C° 2.3 mm 15 mps 747 mmHg 90%
    14:00 +8°C° 2.3 mm 15 mps 747 mmHg 90%
    15:00 +8°C° 2.3 mm 15 mps 746 mmHg 90%
    16:00 +9°C° 2 mm 15 mps 745 mmHg 90%
    17:00 +9°C° 2 mm 15 mps 745 mmHg 90%
    18:00 +9°C° 2 mm 14 mps 744 mmHg 90%
    19:00 +9°C° 0.4 mm 13 mps 744 mmHg 88%
    20:00 +9°C° 0.4 mm 12 mps 744 mmHg 86%
    21:00 +9°C° 0.4 mm 11 mps 744 mmHg 83%
    22:00 +9°C° 0.1 mm 11 mps 744 mmHg 83%
    23:00 +9°C° 0.1 mm 12 mps 744 mmHg 83%

    Day after tomorrow, 24 October, Thursday

    Time Temperature Precipitation Wind Pressure Humidity
    00:00 +8°C° 0.1 mm 12 mps 744 mmHg 83%
    01:00 +8°C° 0.2 mm 13 mps 743 mmHg 82%
    02:00 +9°C° 0.2 mm 13 mps 743 mmHg 82%
    03:00 +9°C° 0.2 mm 14 mps 742 mmHg 81%
    04:00 +9°C° 0.2 mm 13 mps 742 mmHg 81%
    05:00 +9°C° 0.2 mm 12 mps 741 mmHg 81%
    06:00 +8°C° 0.2 mm 11 mps 741 mmHg 81%
    07:00 +8°C° 0.3 mm 11 mps 741 mmHg 82%
    08:00 +8°C° 0.3 mm 12 mps 740 mmHg 84%
    09:00 +8°C° 0.3 mm 12 mps 740 mmHg 86%
    10:00 +8°C° 0.1 mm 12 mps 740 mmHg 81%
    11:00 +8°C° 0.1 mm 12 mps 739 mmHg 75%
    12:00 +7°C° 0.1 mm 12 mps 739 mmHg 70%
    13:00 +7°C° 0.4 mm 11 mps 738 mmHg 74%
    14:00 +7°C° 0.4 mm 9 mps 738 mmHg 77%
    15:00 +7°C° 0.4 mm 8 mps 738 mmHg 80%
    16:00 +6°C° 0.4 mm 9 mps 738 mmHg 82%
    17:00 +6°C° 0.4 mm 10 mps 739 mmHg 83%
    18:00 +6°C° 0.4 mm 10 mps 739 mmHg 85%
    19:00 +5°C° 0.3 mm 13 mps 740 mmHg 83%
    20:00 +5°C° 0.3 mm 15 mps 742 mmHg 82%
    21:00 +5°C° 0.3 mm 18 mps 743 mmHg 81%
    22:00 +3°C° 0.4 mm 17 mps 744 mmHg 84%
    23:00 +3°C° 0.4 mm 17 mps 745 mmHg 88%

    25 October, Friday

    Time Temperature Precipitation Wind Pressure Humidity
    00:00 +2°C° 0.4 mm 17 mps 746 mmHg 91%
    01:00 +2°C° 0.3 mm 16 mps 747 mmHg 88%
    02:00 +1°C° 0.3 mm 15 mps 747 mmHg 86%
    03:00 +1°C° 0.3 mm 14 mps 747 mmHg 83%
    04:00 +1°C° 0.1 mm 14 mps 747 mmHg 77%
    05:00 +1°C° 0.1 mm 13 mps 747 mmHg 71%
    06:00 +1°C° 0.1 mm 13 mps 747 mmHg 66%
    07:00 +2°C° 0.3 mm 12 mps 747 mmHg 70%
    08:00 +2°C° 0.3 mm 11 mps 747 mmHg 74%
    09:00 +2°C° 0.3 mm 10 mps 747 mmHg 78%
    10:00 +3°C° 0.4 mm 10 mps 747 mmHg 77%
    11:00 +3°C° 0.4 mm 11 mps 747 mmHg 75%
    12:00 +4°C° 0.4 mm 11 mps 748 mmHg 73%
    13:00 +5°C° 0.4 mm 10 mps 748 mmHg 74%
    14:00 +5°C° 0.4 mm 9 mps 748 mmHg 74%
    15:00 +5°C° 0.4 mm 8 mps 748 mmHg 75%
    16:00 +5°C° 0.2 mm 10 mps 748 mmHg 74%
    17:00 +3°C° 0.2 mm 11 mps 749 mmHg 73%
    18:00 +3°C° 0.2 mm 12 mps 749 mmHg 72%
    19:00 +3°C° 0 mm 12 mps 749 mmHg 70%
    20:00 +3°C° 0 mm 13 mps 750 mmHg 68%
    21:00 +3°C° 0 mm 13 mps 750 mmHg 67%
    22:00 +3°C° 0 mm 14 mps 750 mmHg 63%
    23:00 +4°C° 0 mm 15 mps 750 mmHg 59%

    26 October, Saturday

    Time Temperature Precipitation Wind Pressure Humidity
    00:00 +3°C° 0 mm 17 mps 750 mmHg 55%
    01:00 +3°C° 0 mm 17 mps 750 mmHg 56%
    02:00 +3°C° 0 mm 17 mps 749 mmHg 56%
    03:00 +3°C° 0 mm 18 mps 749 mmHg 56%
    04:00 +3°C° 0 mm 18 mps 749 mmHg 58%
    05:00 +3°C° 0 mm 19 mps 749 mmHg 60%
    06:00 +3°C° 0 mm 19 mps 749 mmHg 63%
    07:00 +3°C° 1.1 mm 19 mps 749 mmHg 72%
    08:00 +3°C° 1.1 mm 19 mps 749 mmHg 81%
    09:00 +2°C° 1.1 mm 19 mps 749 mmHg 90%
    10:00 +2°C° 1.4 mm 18 mps 750 mmHg 90%
    11:00 +4°C° 1.4 mm 16 mps 751 mmHg 90%
    12:00 +4°C° 1.4 mm 15 mps 751 mmHg 90%
    13:00 +4°C° 0.6 mm 14 mps 752 mmHg 89%
    14:00 +4°C° 0.6 mm 14 mps 753 mmHg 88%
    15:00 +4°C° 0.6 mm 13 mps 753 mmHg 87%
    16:00 +4°C° 0.3 mm 13 mps 754 mmHg 83%
    17:00 +4°C° 0.3 mm 12 mps 755 mmHg 79%
    18:00 +4°C° 0.3 mm 12 mps 756 mmHg 76%
    19:00 +4°C° 0.1 mm 12 mps 756 mmHg 75%
    20:00 +4°C° 0.1 mm 11 mps 757 mmHg 73%
    21:00 +4°C° 0.1 mm 11 mps 758 mmHg 72%
    22:00 +3°C° 0.1 mm 11 mps 759 mmHg 72%
    23:00 +3°C° 0.1 mm 10 mps 760 mmHg 72%

    27 October, Sunday

    Time Temperature Precipitation Wind Pressure Humidity
    00:00 +3°C° 0.1 mm 10 mps 760 mmHg 72%
    01:00 +3°C° 0.1 mm 9 mps 761 mmHg 71%
    02:00 +3°C° 0.1 mm 9 mps 761 mmHg 71%
    03:00 +4°C° 0.1 mm 8 mps 762 mmHg 70%
    04:00 +4°C° 0.1 mm 8 mps 762 mmHg 70%
    05:00 +2°C° 0.1 mm 8 mps 763 mmHg 69%
    06:00 +3°C° 0.1 mm 7 mps 763 mmHg 69%
    07:00 +3°C° 0.1 mm 7 mps 764 mmHg 69%
    08:00 +4°C° 0.1 mm 6 mps 764 mmHg 70%
    09:00 +4°C° 0.1 mm 6 mps 765 mmHg 70%
    10:00 +5°C° 0.2 mm 5 mps 765 mmHg 68%
    11:00 +6°C° 0.2 mm 5 mps 765 mmHg 66%
    12:00 +6°C° 0.2 mm 5 mps 766 mmHg 64%
    13:00 +6°C° 0.2 mm 5 mps 766 mmHg 66%
    14:00 +6°C° 0.2 mm 5 mps 766 mmHg 67%
    15:00 +5°C° 0.2 mm 6 mps 766 mmHg 69%
    16:00 +4°C° 0.2 mm 6 mps 766 mmHg 71%
    17:00 +3°C° 0.2 mm 6 mps 766 mmHg 72%
    18:00 +3°C° 0.2 mm 6 mps 767 mmHg 74%
    19:00 +3°C° 0 mm 6 mps 767 mmHg 72%
    20:00 +3°C° 0 mm 6 mps 767 mmHg 69%
    21:00 +3°C° 0 mm 6 mps 768 mmHg 67%
    22:00 +3°C° 0 mm 5 mps 768 mmHg 68%
    23:00 +3°C° 0 mm 5 mps 768 mmHg 68%

    28 October, Monday

    Time Temperature Precipitation Wind Pressure Humidity
    00:00 +3°C° 0 mm 5 mps 768 mmHg 69%
    01:00 +3°C° 0 mm 5 mps 768 mmHg 68%
    02:00 +3°C° 0 mm 5 mps 768 mmHg 68%
    03:00 +3°C° 0 mm 5 mps 768 mmHg 68%
    04:00 +3°C° 0.1 mm 5 mps 768 mmHg 71%
    05:00 +3°C° 0.1 mm 6 mps 768 mmHg 74%
    06:00 +3°C° 0.1 mm 6 mps 768 mmHg 78%
    07:00 +3°C° 0.1 mm 6 mps 768 mmHg 77%
    08:00 +4°C° 0.1 mm 6 mps 768 mmHg 77%
    09:00 +5°C° 0.1 mm 5 mps 768 mmHg 77%
    10:00 +5°C° 0 mm 5 mps 769 mmHg 76%
    11:00 +5°C° 0 mm 5 mps 769 mmHg 76%
    12:00 +5°C° 0 mm 5 mps 769 mmHg 75%
    13:00 +5°C° 0 mm 5 mps 769 mmHg 74%
    14:00 +6°C° 0 mm 5 mps 769 mmHg 73%
    15:00 +6°C° 0 mm 5 mps 769 mmHg 71%
    16:00 +5°C° 0 mm 5 mps 769 mmHg 72%
    17:00 +3°C° 0 mm 5 mps 769 mmHg 73%
    18:00 +3°C° 0 mm 6 mps 769 mmHg 73%
    19:00 +2°C° 0 mm 6 mps 770 mmHg 73%
    20:00 +2°C° 0 mm 6 mps 770 mmHg 73%
    21:00 +2°C° 0 mm 6 mps 770 mmHg 73%
    22:00 +2°C° 0 mm 6 mps 770 mmHg 74%
    23:00 +1°C° 0 mm 6 mps 770 mmHg 75%
    Show more